Tracking 31027 objects as of 19-Jul-2025
HD Live streaming from Space Station
objects crossing your sky now

COSMOS 1275 DEB

Track COSMOS 1275 DEB now!
10-day predictions


NORAD ID: 15768
Int'l Code: 1981-053KG
Perigee: 810.1 km
Apogee: 875.5 km
Inclination: 83.1 °
Period: 101.6 minutes
Semi major axis: 7213 km
RCS: 0.0155 m2 (small)
Launch date: June 4, 1981
Source: Commonwealth of Independent States (former USSR) (CIS)
Launch site: PLESETSK MISSILE AND SPACE COMPLEX (PKMTR)

Note: This is SATELLITE DEBRIS
Your satellite tracking list
FLOCK 4Q 34
Track 1 satellite(s)




NASA's NSSDC Master Catalog

Two Line Element Set (TLE):
1 15768U 81053KD  25199.21006212  .00002069  00000-0  10126-2 0  9993
2 15768  83.0605 103.4789 0045313 242.8945 270.8979 14.16960002 46318
Source of the keplerian elements: AFSPC